| time (UTC) | temp F | wind direction | speed MPH | gust MPH | rain 1hr in | rain 24hr in | rain mn in | humidity % | barometer mb |
| 20260505070722 | 56 | 16 | 20.0 | 32.0 | 0.03 | 0.00 | 0.03 | 85 | 731.0 |
| 20260505070222 | 59 | 352 | 18.0 | 29.0 | 0.01 | 0.00 | 0.01 | 77 | 954.1 |
| 20260505065721 | 65 | 353 | 20.0 | 22.0 | 0.00 | 0.00 | 0.00 | 65 | 931.2 |
| 20260505065220 | 68 | 296 | 9.0 | 14.0 | 0.00 | 0.00 | 0.00 | 76 | 908.5 |
| 20260505064719 | 68 | 229 | 6.0 | 13.0 | 0.00 | 0.00 | 0.00 | 76 | 799.2 |
| 20260505064218 | 68 | 212 | 5.0 | 13.0 | 0.00 | 0.00 | 0.00 | 76 | 772.7 |
| 20260505063202 | 68 | 203 | 4.0 | 13.0 | 0.00 | 0.00 | 0.00 | 76 | 738.9 |
| 20260505062145 | 68 | 191 | 3.0 | 13.0 | 0.00 | 0.00 | 0.00 | 75 | 705.2 |
| 20260505061644 | 68 | 180 | 4.0 | 13.0 | 0.00 | 0.00 | 0.00 | 75 | 693.0 |
| 20260505061143 | 68 | 179 | 5.0 | 13.0 | 0.00 | 0.00 | 0.00 | 75 | 693.2 |
| 20260505060642 | 68 | 171 | 4.0 | 13.0 | 0.00 | 0.00 | 0.00 | 74 | 693.0 |
| 20260505060141 | 68 | 178 | 4.0 | 13.0 | 0.00 | 0.00 | 0.00 | 74 | 707.5 |
| 20260505055640 | 68 | 186 | 3.0 | 13.0 | 0.00 | 0.00 | 0.00 | 74 | 720.1 |
| 20260505055140 | 69 | 184 | 5.0 | 13.0 | 0.00 | 0.00 | 0.00 | 74 | 718.2 |
| 20260505053608 | 69 | 187 | 4.0 | 13.0 | 0.00 | 0.00 | 0.00 | 74 | 711.1 |
| 20260505053108 | 69 | 181 | 6.0 | 13.0 | 0.00 | 0.00 | 0.00 | 74 | 705.5 |
| 20260505052607 | 69 | 184 | 6.0 | 13.0 | 0.00 | 0.00 | 0.00 | 74 | 704.3 |
| 20260505052106 | 69 | 183 | 6.0 | 13.0 | 0.00 | 0.00 | 0.00 | 74 | 705.0 |
| 20260505051050 | 69 | 182 | 6.0 | 13.0 | 0.00 | 0.00 | 0.00 | 74 | 700.6 |
| 20260505050549 | 69 | 181 | 5.0 | 13.0 | 0.00 | 0.00 | 0.00 | 74 | 694.8 |
| 20260505041528 | 70 | 174 | 5.0 | 13.0 | 0.00 | 0.00 | 0.00 | 71 | 699.0 |
| 20260505041027 | 70 | 179 | 5.0 | 13.0 | 0.00 | 0.00 | 0.00 | 70 | 710.6 |
| 20260505040527 | 70 | 184 | 6.0 | 13.0 | 0.00 | 0.00 | 0.00 | 70 | 714.3 |
| 20260505040026 | 70 | 188 | 6.0 | 13.0 | 0.00 | 0.00 | 0.00 | 70 | 717.0 |
| 20260505035010 | 71 | 183 | 6.0 | 13.0 | 0.00 | 0.00 | 0.00 | 70 | 717.6 |
| 20260505033953 | 71 | 190 | 7.0 | 13.0 | 0.00 | 0.00 | 0.00 | 70 | 721.7 |
| 20260505032937 | 71 | 185 | 7.0 | 13.0 | 0.00 | 0.00 | 0.00 | 70 | 715.7 |
| 20260505031920 | 71 | 184 | 7.0 | 13.0 | 0.00 | 0.00 | 0.00 | 69 | 709.3 |
| 20260505031419 | 71 | 186 | 7.0 | 13.0 | 0.00 | 0.00 | 0.00 | 69 | 713.7 |
| 20260505030918 | 72 | 184 | 6.0 | 13.0 | 0.00 | 0.00 | 0.00 | 69 | 714.0 |
| 20260505030418 | 72 | 183 | 7.0 | 13.0 | 0.00 | 0.00 | 0.00 | 69 | 705.1 |
| 20260505025401 | 72 | 179 | 7.0 | 13.0 | 0.00 | 0.00 | 0.00 | 69 | 694.9 |
| 20260505024345 | 73 | 177 | 5.0 | 13.0 | 0.00 | 0.00 | 0.00 | 69 | 696.9 |
| 20260505023844 | 73 | 178 | 5.0 | 13.0 | 0.00 | 0.00 | 0.00 | 69 | 697.3 |
| 20260505022827 | 73 | 179 | 9.0 | 13.0 | 0.00 | 0.00 | 0.00 | 68 | 696.4 |
| 20260505022326 | 74 | 175 | 6.0 | 14.0 | 0.00 | 0.00 | 0.00 | 69 | 705.1 |
| 20260505021825 | 74 | 183 | 5.0 | 14.0 | 0.00 | 0.00 | 0.00 | 68 | 712.0 |
| 20260505021325 | 74 | 189 | 7.0 | 14.0 | 0.00 | 0.00 | 0.00 | 68 | 709.2 |
| 20260505020309 | 74 | 177 | 7.0 | 14.0 | 0.00 | 0.00 | 0.00 | 67 | 688.4 |
| 20260505015808 | 74 | 181 | 6.0 | 14.0 | 0.00 | 0.00 | 0.00 | 67 | 688.3 |
| 20260505015307 | 75 | 174 | 6.0 | 14.0 | 0.00 | 0.00 | 0.00 | 67 | 688.1 |
| 20260505013735 | 75 | 180 | 10.0 | 16.0 | 0.00 | 0.00 | 0.00 | 66 | 703.3 |
| 20260505013234 | 75 | 186 | 7.0 | 15.0 | 0.00 | 0.00 | 0.00 | 66 | 705.1 |
| 20260505012734 | 75 | 185 | 8.0 | 15.0 | 0.00 | 0.00 | 0.00 | 65 | 703.8 |
| 20260505011717 | 76 | 181 | 11.0 | 16.0 | 0.00 | 0.00 | 0.00 | 64 | 693.0 |
| 20260505011217 | 76 | 179 | 8.0 | 16.0 | 0.00 | 0.00 | 0.00 | 64 | 696.0 |
| 20260505010200 | 77 | 182 | 8.0 | 16.0 | 0.00 | 0.00 | 0.00 | 63 | 705.7 |
| 20260505005143 | 77 | 184 | 10.0 | 19.0 | 0.00 | 0.00 | 0.00 | 62 | 711.7 |
| 20260505004642 | 77 | 189 | 8.0 | 15.0 | 0.00 | 0.00 | 0.00 | 61 | 717.4 |
| 20260505004141 | 78 | 185 | 8.0 | 15.0 | 0.00 | 0.00 | 0.00 | 61 | 718.5 |
| 20260505003640 | 78 | 191 | 9.0 | 15.0 | 0.00 | 0.00 | 0.00 | 60 | 722.7 |
| 20260505003139 | 78 | 178 | 8.0 | 12.0 | 0.00 | 0.00 | 0.00 | 59 | 723.0 |
| 20260505002639 | 78 | 200 | 3.0 | 14.0 | 0.00 | 0.00 | 0.00 | 59 | 750.3 |
| 20260505002138 | 78 | 181 | 3.0 | 14.0 | 0.00 | 0.00 | 0.00 | 59 | 732.0 |
| 20260505001637 | 78 | 189 | 4.0 | 14.0 | 0.00 | 0.00 | 0.00 | 58 | 752.1 |
| 20260505001136 | 79 | 204 | 5.0 | 14.0 | 0.00 | 0.00 | 0.00 | 57 | 769.7 |
| 20260505000119 | 79 | 208 | 7.0 | 14.0 | 0.00 | 0.00 | 0.00 | 56 | 788.8 |
| 20260504235618 | 79 | 210 | 6.0 | 14.0 | 0.00 | 0.00 | 0.00 | 56 | 790.6 |
| 20260504235117 | 79 | 209 | 8.0 | 14.0 | 0.00 | 0.00 | 0.00 | 56 | 797.4 |
| 20260504234100 | 80 | 224 | 6.0 | 14.0 | 0.00 | 0.00 | 0.00 | 54 | 798.2 |
| 20260504233559 | 80 | 211 | 6.0 | 14.0 | 0.00 | 0.00 | 0.00 | 54 | 776.7 |
| 20260504233059 | 80 | 206 | 6.0 | 14.0 | 0.00 | 0.00 | 0.00 | 54 | 768.7 |
| 20260504232559 | 80 | 205 | 6.0 | 14.0 | 0.00 | 0.00 | 0.00 | 54 | 761.2 |
| 20260504231542 | 81 | 207 | 5.0 | 14.0 | 0.00 | 0.00 | 0.00 | 53 | 774.6 |
| 20260504231041 | 81 | 208 | 9.0 | 16.0 | 0.00 | 0.00 | 0.00 | 52 | 788.7 |
| 20260504230541 | 81 | 214 | 10.0 | 16.0 | 0.00 | 0.00 | 0.00 | 52 | 797.9 |
| 20260504230040 | 82 | 222 | 9.0 | 16.0 | 0.00 | 0.00 | 0.00 | 52 | 802.5 |
| 20260504225539 | 82 | 202 | 7.0 | 16.0 | 0.00 | 0.00 | 0.00 | 52 | 797.3 |
| 20260504225038 | 82 | 223 | 9.0 | 16.0 | 0.00 | 0.00 | 0.00 | 51 | 812.2 |
| 20260504224021 | 82 | 205 | 11.0 | 20.0 | 0.00 | 0.00 | 0.00 | 50 | 780.2 |
| 20260504223520 | 82 | 210 | 12.0 | 19.0 | 0.00 | 0.00 | 0.00 | 49 | 791.2 |
| 20260504223020 | 82 | 217 | 11.0 | 19.0 | 0.00 | 0.00 | 0.00 | 50 | 794.8 |
| 20260504222519 | 82 | 205 | 11.0 | 19.0 | 0.00 | 0.00 | 0.00 | 51 | 770.6 |
| 20260504220948 | 82 | 213 | 11.0 | 16.0 | 0.00 | 0.00 | 0.00 | 51 | 812.8 |
| 20260504215932 | 81 | 233 | 11.0 | 23.0 | 0.00 | 0.00 | 0.00 | 51 | 837.2 |
| 20260504215431 | 82 | 227 | 12.0 | 19.0 | 0.00 | 0.00 | 0.00 | 48 | 823.2 |
| 20260504214414 | 82 | 225 | 13.0 | 19.0 | 0.00 | 0.00 | 0.00 | 49 | 818.8 |
| 20260504213914 | 82 | 214 | 10.0 | 18.0 | 0.00 | 0.00 | 0.00 | 51 | 820.9 |
| 20260504213413 | 82 | 225 | 10.0 | 20.0 | 0.00 | 0.00 | 0.00 | 50 | 822.2 |
| 20260504212356 | 82 | 226 | 13.0 | 24.0 | 0.00 | 0.00 | 0.00 | 50 | 830.7 |
| 20260504211340 | 82 | 208 | 11.0 | 18.0 | 0.00 | 0.00 | 0.00 | 49 | 816.6 |
| 20260504210839 | 81 | 230 | 13.0 | 18.0 | 0.00 | 0.00 | 0.00 | 50 | 831.1 |
| 20260504210339 | 81 | 221 | 12.0 | 21.0 | 0.00 | 0.00 | 0.00 | 50 | 811.6 |
| 20260504205838 | 81 | 217 | 11.0 | 21.0 | 0.00 | 0.00 | 0.00 | 50 | 801.5 |
| 20260504205336 | 82 | 209 | 13.0 | 22.0 | 0.00 | 0.00 | 0.00 | 49 | 803.4 |
| 20260504204836 | 82 | 217 | 17.0 | 24.0 | 0.00 | 0.00 | 0.00 | 49 | 806.0 |
| 20260504204335 | 82 | 219 | 14.0 | 24.0 | 0.00 | 0.00 | 0.00 | 48 | 798.7 |
| 20260504203317 | 82 | 202 | 8.0 | 20.0 | 0.00 | 0.00 | 0.00 | 50 | 798.8 |
| 20260504202817 | 81 | 220 | 13.0 | 22.0 | 0.00 | 0.00 | 0.00 | 49 | 809.4 |
| 20260504201801 | 81 | 208 | 15.0 | 25.0 | 0.00 | 0.00 | 0.00 | 48 | 779.7 |
| 20260504200743 | 82 | 201 | 13.0 | 24.0 | 0.00 | 0.00 | 0.00 | 48 | 787.6 |
| 20260504200242 | 82 | 201 | 15.0 | 23.0 | 0.00 | 0.00 | 0.00 | 48 | 794.0 |
| 20260504195741 | 81 | 213 | 12.0 | 23.0 | 0.00 | 0.00 | 0.00 | 49 | 811.6 |
| 20260504195240 | 82 | 215 | 16.0 | 22.0 | 0.00 | 0.00 | 0.00 | 48 | 811.9 |
| 20260504194740 | 81 | 213 | 12.0 | 21.0 | 0.00 | 0.00 | 0.00 | 48 | 814.0 |
| 20260504194239 | 82 | 229 | 15.0 | 24.0 | 0.00 | 0.00 | 0.00 | 49 | 819.0 |
| 20260504193231 | 81 | 202 | 16.0 | 22.0 | 0.00 | 0.00 | 0.00 | 48 | 807.8 |
| 20260504192731 | 81 | 224 | 12.0 | 22.0 | 0.00 | 0.00 | 0.00 | 50 | 831.4 |
| 20260504192230 | 80 | 211 | 13.0 | 22.0 | 0.00 | 0.00 | 0.00 | 48 | 831.2 |
| 20260504191222 | 80 | 220 | 12.0 | 21.0 | 0.00 | 0.00 | 0.00 | 49 | 814.2 |
| 20260504190722 | 80 | 225 | 15.0 | 21.0 | 0.00 | 0.00 | 0.00 | 47 | 813.2 |
| 20260504185705 | 80 | 227 | 14.0 | 22.0 | 0.00 | 0.00 | 0.00 | 49 | 840.0 |
| 20260504185205 | 79 | 226 | 14.0 | 21.0 | 0.00 | 0.00 | 0.00 | 48 | 836.6 |
| 20260504184705 | 79 | 236 | 15.0 | 22.0 | 0.00 | 0.00 | 0.00 | 49 | 839.4 |
| 20260504184205 | 79 | 222 | 13.0 | 31.0 | 0.00 | 0.00 | 0.00 | 47 | 816.6 |
| 20260504183704 | 79 | 203 | 18.0 | 31.0 | 0.00 | 0.00 | 0.00 | 49 | 818.6 |
| 20260504183204 | 79 | 228 | 15.0 | 23.0 | 0.00 | 0.00 | 0.00 | 50 | 829.8 |
| 20260504182704 | 79 | 226 | 13.0 | 23.0 | 0.00 | 0.00 | 0.00 | 49 | 825.9 |
| 20260504182204 | 78 | 214 | 15.0 | 22.0 | 0.00 | 0.00 | 0.00 | 49 | 814.5 |
| 20260504181148 | 78 | 207 | 15.0 | 24.0 | 0.00 | 0.00 | 0.00 | 50 | 802.6 |
| 20260504180141 | 78 | 211 | 13.0 | 22.0 | 0.00 | 0.00 | 0.00 | 50 | 822.3 |
| 20260504175640 | 78 | 228 | 14.0 | 22.0 | 0.00 | 0.00 | 0.00 | 50 | 820.5 |
| 20260504175139 | 78 | 215 | 16.0 | 22.0 | 0.00 | 0.00 | 0.00 | 50 | 825.2 |
| 20260504174639 | 78 | 220 | 13.0 | 23.0 | 0.00 | 0.00 | 0.00 | 50 | 833.2 |
| 20260504174138 | 77 | 231 | 18.0 | 24.0 | 0.00 | 0.00 | 0.00 | 50 | 845.2 |
| 20260504172605 | 77 | 238 | 18.0 | 23.0 | 0.00 | 0.00 | 0.00 | 50 | 834.6 |
| 20260504172105 | 77 | 223 | 16.0 | 21.0 | 0.00 | 0.00 | 0.00 | 51 | 810.7 |
| 20260504171604 | 76 | 212 | 13.0 | 21.0 | 0.00 | 0.00 | 0.00 | 53 | 803.2 |
| 20260504171103 | 77 | 205 | 10.0 | 23.0 | 0.00 | 0.00 | 0.00 | 53 | 808.8 |
| 20260504170602 | 76 | 204 | 14.0 | 23.0 | 0.00 | 0.00 | 0.00 | 53 | 814.9 |
| 20260504150930 | 69 | 222 | 12.0 | 21.0 | 0.00 | 0.00 | 0.00 | 58 | 832.9 |
| 20260504140837 | 69 | 215 | 17.0 | 27.0 | 0.00 | 0.00 | 0.00 | 57 | 811.0 |
| 20260504140337 | 69 | 223 | 18.0 | 24.0 | 0.00 | 0.00 | 0.00 | 57 | 811.7 |
| 20260504130330 | 65 | 207 | 12.0 | 23.0 | 0.00 | 0.00 | 0.00 | 60 | 769.6 |